Regional Weather Roundup
Issued by NWS

Home | Current Version | Previous Version | Text Only | Print | Product List | Glossary Off
Versions: 1 2 3 4 5 6 7 8 9 10 11 12 13 14 15 16 17 18 19 20 21 22 23 24 25 26 27 28

000
ASUS45 KCYS 241210
RWRWY

WYOMING REGIONAL WEATHER ROUNDUP
NATIONAL WEATHER SERVICE CHEYENNE WY
600 AM MDT FRI OCT 24 2014

NOTE:  "FAIR" INDICATES FEW OR NO CLOUDS BELOW 12,000 FEET
WITH NO SIGNIFICANT WEATHER AND/OR OBSTRUCTIONS TO VISIBILITY.

WYZ001-241300-
YELLOWSTONE NATIONAL PARK

CITY           SKY/WX    TMP DP  RH WIND       PRES   REMARKS
LK YELLOWSTONE   N/A     43  31  62 VRB6      30.21
6HR MIN TEMP:  38; 6HR MAX TEMP:  43;

W YELLOWSTONE  NOT AVBL

$$
WYZ002>013-054>058-071-098>099-241300-
NORTHERN WYOMING

CITY           SKY/WX    TMP DP  RH WIND       PRES   REMARKS
JACKSON        CLOUDY    48  30  49 S7        30.17F
CODY           CLOUDY    57  28  33 SE8       30.01
GREYBULL       CLOUDY    39  26  59 E5        29.98R
6HR MIN TEMP:  39; 6HR MAX TEMP:  50;

WORLAND        FLURRIES  37  27  67 CALM      29.99R
6HR MIN TEMP:  36; 6HR MAX TEMP:  43; 6HR PCP: TRACE;

SHERIDAN       CLOUDY    42  29  59 VRB5      29.96R
6HR MIN TEMP:  40; 6HR MAX TEMP:  47;

BUFFALO        CLOUDY    50  25  37 W6        30.01R
6HR MIN TEMP:  48; 6HR MAX TEMP:  55;

GILLETTE       CLOUDY    51  26  37 CALM      29.98R
6HR MIN TEMP:  43; 6HR MAX TEMP:  57;

HULETT         FAIR      50  28  43 SW7       29.97
NEWCASTLE      FAIR      43  30  61 N6        30.00

$$
WYZ014>020-022>026-101>103-241300-
CENTRAL WYOMING

CITY           SKY/WX    TMP DP  RH WIND       PRES   REMARKS
BIG PINEY      PTCLDY    27  22  81 N7        30.22R WCI  19
6HR MIN TEMP:  27; 6HR MAX TEMP:  37;

PINEDALE       CLOUDY    32  30  93 CALM      30.23
DUBOIS         PTSUNNY   45  23  42 NW15      30.14S
LANDER         MOCLDY    47  25  42 NW6       30.06R
6HR MIN TEMP:  45; 6HR MAX TEMP:  59;

RIVERTON       MOCLDY    41  24  51 NW8       30.08R
6HR MIN TEMP:  41; 6HR MAX TEMP:  54;

CASPER         CLOUDY    51  30  44 W10       30.08R
6HR MIN TEMP:  51; 6HR MAX TEMP:  53;

DOUGLAS        CLOUDY    45  28  51 CALM      30.06R
6HR MIN TEMP:  45; 6HR MAX TEMP:  56;


$$
WYZ021-027>030-104>119-241300-
SOUTHERN WYOMING

CITY           SKY/WX    TMP DP  RH WIND       PRES   REMARKS
EVANSTON       CLEAR     43  22  43 SW13      30.22S
6HR MIN TEMP:  42; 6HR MAX TEMP:  53;

KEMMERER       SUNNY     39  27  60 CALM      30.23S
FORT BRIDGER   FAIR      47  23  39 W10       30.25R
ROCK SPRINGS   PTCLDY    44  26  49 S7        30.21R
6HR MIN TEMP:  42; 6HR MAX TEMP:  51;

DIXON          FAIR      41  32  71 CALM      30.28R
RAWLINS        PTCLDY    47  27  45 SW7       30.21R
6HR MIN TEMP:  47; 6HR MAX TEMP:  54;

SARATOGA       FAIR      41  28  60 SE6       30.24S
LARAMIE        MOCLDY    49  26  41 SW10      30.22S
6HR MIN TEMP:  47; 6HR MAX TEMP:  52;

CHEYENNE       CLOUDY    56  27  32 W8        30.16S
6HR MIN TEMP:  49; 6HR MAX TEMP:  57;

TORRINGTON     CLOUDY    58  33  39 W7        30.03R
6HR MIN TEMP:  50; 6HR MAX TEMP:  62;

PINE BLUFFS    FAIR      50  34  53 SW7       30.12R

$$



USA.gov is the U.S. government's official web portal to all federal, state and local government web resources and services.